Theta_e
299 299 299 299 299 298 298 298 297 296 296 296 295 295 295 295 294 294 294 293 292 291 291 290 291 291 291 291 290 290 290 290 289 289 289 289 288 288 288 287 287 287 287 287 286 286 286 286 286 286 285 285 285 285 285 285 285 284 284 284 283 283 283 283 283 282 282 282 283 284 284 285 286 286 286 286 286 286 286 286 286 286 286 286 286
299 299 299 299 298 298 298 297 296 296 296 295 295 295 295 294 294 294 293 292 291 291 290 290 290 290 290 290 290 290 290 290 290 289 289 289 288 288 287 287 287 287 287 286 286 286 286 286 286 286 285 285 285 285 284 284 284 284 284 284 283 283 283 283 283 282 282 282 282 282 283 284 286 286 286 286 286 286 286 286 286 286 286 286 286
299 299 298 298 298 298 297 297 296 296 296 295 295 295 294 294 294 293 292 291 291 290 291 291 291 291 291 291 291 290 290 290 290 290 290 289 289 288 288 287 287 287 287 287 287 286 286 286 286 285 285 285 284 284 284 284 284 284 283 283 283 283 283 283 283 282 281 281 281 281 282 283 284 285 286 286 286 285 285 285 286 286 286 286 286
298 298 298 298 298 297 297 297 296 296 296 295 295 294 294 294 293 293 292 291 290 290 290 291 291 291 291 291 291 291 290 290 290 290 290 290 289 289 289 288 288 287 287 287 287 287 286 286 285 285 285 284 284 284 284 284 283 283 283 283 283 282 282 282 282 282 281 281 280 281 281 281 282 283 285 285 285 284 285 285 285 285 286 286 285
298 298 298 297 297 297 297 296 296 296 295 295 294 294 293 293 293 292 290 289 288 288 289 290 290 290 291 291 291 291 290 290 290 290 290 290 290 289 289 289 289 288 288 288 288 287 287 286 286 285 285 284 284 283 283 283 283 283 283 283 282 282 282 282 282 281 281 281 280 280 281 281 281 282 282 283 284 284 284 284 285 285 285 285 285
298 297 297 297 297 297 296 296 296 295 295 294 294 293 293 293 292 291 289 288 288 287 287 289 290 290 290 290 290 290 290 290 290 290 290 290 290 289 289 289 289 289 288 288 288 288 287 287 286 286 285 285 284 284 283 283 283 283 282 282 282 282 282 281 281 281 281 281 280 280 280 280 281 281 281 281 283 283 283 283 284 284 284 284 285
297 297 297 297 297 296 296 295 295 294 294 293 293 293 293 292 291 289 289 288 288 287 286 287 288 289 289 289 289 290 290 290 290 290 290 289 289 289 289 289 289 289 289 289 288 288 288 287 286 286 286 285 285 284 283 283 282 282 282 282 282 282 281 281 281 281 281 281 280 280 280 280 280 280 280 280 281 282 282 282 283 283 283 284 284
296 297 296 296 296 296 295 295 294 294 293 293 293 292 292 291 290 289 288 288 287 286 286 286 286 286 287 288 288 288 289 289 289 289 289 289 289 289 289 289 289 289 289 289 288 288 288 287 286 286 286 286 285 285 284 283 283 282 282 282 282 282 281 281 281 281 281 280 280 280 280 280 280 280 280 280 280 280 281 281 282 282 282 283 283
296 296 296 296 295 295 295 294 294 293 293 292 292 291 290 290 289 288 288 287 287 286 285 285 285 284 285 285 286 287 288 288 288 288 288 288 288 288 289 289 289 289 289 288 288 288 288 287 286 286 286 286 285 285 284 284 283 283 282 282 282 281 281 281 281 281 280 280 280 280 279 279 279 279 279 279 279 279 280 280 281 282 282 282 283
295 296 295 295 295 295 294 294 294 293 292 291 291 290 289 289 288 288 287 287 286 286 285 285 284 284 283 283 283 285 286 286 286 287 287 287 287 288 289 289 289 288 288 288 288 288 287 287 286 286 286 286 285 285 284 284 284 283 283 282 281 281 281 281 281 280 280 280 280 279 279 279 279 279 279 279 279 279 279 280 280 281 281 282 283
295 295 295 295 295 295 295 294 293 292 290 290 289 289 289 288 288 287 287 286 286 285 285 284 284 283 282 282 281 282 283 284 284 285 286 287 288 288 288 288 288 288 288 288 287 287 287 287 286 286 286 286 285 285 285 284 284 284 283 282 282 281 281 281 280 280 280 280 280 279 279 279 279 279 279 279 279 279 279 279 280 280 280 281 282
295 295 295 295 295 294 293 292 291 290 289 289 289 288 288 288 287 287 286 285 285 285 284 284 283 282 282 281 281 282 282 282 283 283 284 285 287 287 287 286 286 286 287 287 287 287 287 287 286 286 286 285 285 285 285 284 284 284 283 283 282 282 281 281 280 280 280 280 279 279 279 279 279 279 279 279 279 279 279 279 279 279 279 280 281
294 294 294 294 293 292 291 290 289 289 288 288 288 288 288 287 286 285 284 284 283 283 283 282 281 281 281 281 281 281 281 281 281 282 283 284 285 285 285 285 285 286 286 286 286 286 286 286 286 286 286 285 285 285 284 284 284 284 283 283 283 282 282 281 281 280 280 280 279 279 279 279 278 278 278 278 278 278 278 278 279 279 278 279 280
293 294 294 293 291 290 289 289 288 288 288 288 288 287 286 285 284 283 283 282 281 281 280 280 280 280 280 280 279 279 280 280 281 282 283 283 284 284 284 284 285 285 285 285 285 285 285 285 285 285 285 285 285 285 284 284 284 284 284 283 283 282 282 281 281 281 280 280 279 279 278 278 278 278 278 278 278 278 278 278 278 278 278 278 279
293 293 292 291 290 288 288 288 288 288 288 287 287 286 284 283 282 282 281 281 280 279 279 278 278 278 278 278 278 279 280 281 281 282 282 282 282 282 283 283 283 284 284 284 284 284 284 284 285 285 285 285 285 284 284 284 284 284 284 283 282 282 281 281 281 280 280 280 279 279 278 278 278 278 278 278 278 278 278 278 278 278 278 278 278
293 292 290 289 288 288 288 287 287 287 287 286 285 284 283 282 282 281 280 280 279 278 278 277 277 277 277 278 278 279 279 279 280 280 281 281 281 281 281 282 282 282 282 283 283 283 283 283 284 284 284 284 284 284 284 284 283 283 283 283 282 282 281 281 280 280 280 279 279 278 278 278 278 278 277 277 277 278 278 278 278 278 277 277 278
292 291 288 288 288 287 287 287 287 286 285 284 284 282 282 281 280 279 279 278 278 277 277 277 277 277 277 277 277 277 277 277 277 277 278 279 279 280 280 280 280 281 281 281 282 282 282 282 283 283 283 283 283 283 283 283 283 282 282 282 282 281 281 280 280 279 279 279 279 278 278 278 278 277 277 277 277 277 277 277 277 277 277 277 277
291 289 288 287 287 287 287 286 286 285 284 283 282 281 280 279 278 278 277 277 277 276 276 276 277 277 276 276 276 276 276 276 276 276 277 277 278 278 279 279 279 280 280 280 281 281 281 281 282 282 282 282 282 282 282 282 282 281 281 281 281 281 280 280 279 279 279 278 278 278 278 277 277 277 277 277 277 277 277 277 277 277 277 277 277
289 288 287 287 286 286 286 285 285 284 283 282 281 280 279 278 277 276 276 276 276 276 276 276 275 275 275 275 275 275 275 275 276 276 277 277 277 278 278 278 278 278 278 278 279 279 280 280 280 281 281 281 281 280 280 281 281 281 281 281 280 280 279 279 279 278 278 278 278 278 277 277 277 277 277 277 277 277 277 277 277 277 277 276 277
288 287 287 286 286 286 285 284 284 283 282 281 280 279 278 276 276 275 275 275 275 276 275 275 274 274 275 275 275 275 275 275 276 276 276 276 277 277 277 277 277 277 277 277 277 277 277 278 279 279 280 280 280 280 280 280 280 280 280 280 280 279 279 279 278 278 278 277 277 277 277 277 277 276 276 276 276 276 276 277 277 277 276 276 276
288 287 287 286 285 285 284 283 283 282 281 280 278 277 276 275 275 275 275 275 275 275 274 274 274 274 274 274 274 274 274 274 275 275 275 276 276 276 277 276 276 276 275 275 276 276 276 277 277 277 278 279 279 279 279 279 279 279 279 279 279 278 278 278 278 277 277 277 277 277 276 276 276 276 276 276 276 276 276 276 276 276 276 276 276
288 287 286 285 284 284 283 282 281 280 279 278 276 275 275 275 275 275 275 275 274 273 273 273 274 274 273 273 273 272 272 273 273 274 274 274 275 275 274 274 274 274 274 274 274 274 275 275 276 276 276 277 277 277 277 278 278 278 278 278 278 278 277 277 277 277 277 276 276 276 276 276 276 276 276 276 276 276 276 276 276 276 275 275 275
288 287 285 284 283 283 282 281 279 278 277 276 275 274 274 274 274 274 273 273 273 272 273 273 273 273 272 272 271 271 272 272 273 273 273 273 273 273 273 273 273 273 273 273 272 273 273 274 274 275 275 275 276 276 276 276 276 277 277 277 277 277 277 276 276 276 276 276 276 276 276 276 276 276 276 276 276 275 275 275 275 275 275 275 275
287 286 284 283 282 281 280 279 278 277 276 275 274 274 274 273 273 273 272 272 272 272 273 273 273 272 271 271 271 271 272 272 272 272 272 272 273 272 272 272 272 272 272 272 271 271 271 272 272 273 273 274 275 275 275 275 275 275 276 276 275 275 276 276 276 276 276 276 276 275 275 275 275 275 275 275 275 275 275 275 275 275 275 275 275
285 284 283 282 281 279 278 278 277 276 275 273 273 273 272 272 272 272 271 272 272 272 272 272 271 270 270 270 271 271 271 272 272 271 271 272 272 272 271 271 271 271 271 271 270 269 269 270 270 271 271 272 273 274 274 274 274 275 275 274 275 275 275 275 275 275 275 275 275 275 275 275 275 275 275 275 275 275 275 275 274 274 274 274 274
284 283 281 280 279 279 278 277 276 275 273 272 272 272 272 271 271 271 271 271 271 271 271 270 269 269 269 270 270 271 271 271 271 270 271 271 271 271 271 270 270 270 270 269 269 268 268 269 269 270 270 271 272 273 273 274 273 273 273 273 274 274 274 274 275 275 275 275 275 275 275 275 275 275 275 275 275 274 274 274 274 274 274 274 274
283 282 280 280 279 278 277 276 274 273 272 272 271 271 271 271 270 270 271 271 271 271 270 269 269 269 269 270 270 270 270 269 270 270 270 269 269 269 269 269 268 268 268 268 268 268 268 268 268 269 269 270 271 272 272 272 272 272 273 273 273 273 273 274 274 274 275 275 275 275 275 275 275 275 275 275 274 274 274 274 274 274 274 274 274
282 280 279 278 277 277 275 274 273 272 271 271 271 270 270 270 270 270 270 270 270 270 269 268 268 268 269 269 269 269 269 269 269 269 268 268 268 268 268 267 267 267 267 267 266 266 267 267 267 268 269 269 271 271 271 272 272 272 272 272 272 273 273 274 274 274 274 274 274 274 274 274 274 274 275 274 274 274 273 273 273 273 273 273 273
280 279 278 277 276 275 274 273 272 271 271 270 270 270 270 270 270 269 270 269 269 269 268 268 268 268 269 269 268 268 268 268 268 268 268 268 268 267 267 267 267 266 266 265 265 265 266 266 267 267 268 268 269 270 270 271 271 272 272 272 272 272 273 273 274 274 274 274 274 274 274 274 274 274 274 274 274 273 273 273 273 273 273 273 273
278 277 276 276 275 274 273 271 271 270 270 270 269 269 269 269 269 269 269 269 269 268 267 268 268 268 268 268 268 268 268 268 268 268 268 267 267 267 267 267 266 266 265 265 265 266 266 266 267 267 267 267 268 269 269 270 270 271 272 272 273 273 273 273 273 273 274 274 274 274 274 274 274 274 274 273 273 273 273 273 273 273 273 273 273
277 276 275 275 274 272 271 270 270 270 269 269 269 269 269 269 268 268 268 268 268 268 267 268 268 268 268 268 268 268 267 268 267 267 267 267 267 267 266 266 266 266 265 265 265 266 266 267 267 267 267 268 268 269 269 270 271 272 272 273 273 274 274 273 273 273 273 273 273 273 273 273 273 273 273 273 273 273 273 273 273 273 273 273 273
275 275 274 273 272 271 270 270 269 269 268 268 268 268 268 268 268 268 268 268 268 268 268 268 268 268 268 267 268 267 267 268 267 267 267 266 266 266 266 266 265 265 265 265 265 266 266 267 267 267 267 268 268 269 270 270 271 272 273 273 274 274 274 274 274 273 273 273 273 273 273 273 273 273 273 273 272 272 272 272 273 273 273 274 273
274 274 273 272 271 270 270 269 269 268 268 267 267 267 267 267 267 267 268 268 268 268 268 268 267 267 267 267 267 267 267 268 267 267 266 266 266 265 265 265 265 265 265 265 265 266 266 266 267 267 267 268 268 269 269 270 271 272 273 273 274 274 274 274 274 273 273 273 273 273 273 273 273 273 272 272 272 272 272 272 272 272 273 274 274
273 272 271 271 270 269 269 268 268 268 267 267 267 267 267 267 267 267 267 267 268 267 267 267 267 267 267 267 267 267 267 267 267 266 266 265 265 265 264 264 264 264 265 265 265 266 266 266 266 266 267 267 268 268 269 270 271 272 273 274 274 274 274 274 274 273 273 273 273 273 273 273 273 273 272 272 271 271 271 271 271 271 272 273 274
272 271 271 270 269 268 268 268 267 267 267 267 267 267 267 267 267 267 267 267 267 267 267 266 266 267 267 266 266 266 266 266 266 266 265 265 264 264 264 264 264 264 264 265 265 266 266 266 266 266 266 267 267 268 269 270 271 272 273 274 274 274 274 274 274 274 273 273 273 273 273 273 273 273 272 272 271 271 271 271 270 271 271 272 273
271 270 270 269 268 268 268 267 267 267 267 266 266 266 266 266 266 266 266 266 266 266 266 266 266 266 266 266 266 266 266 266 265 265 264 264 264 263 263 263 263 263 263 264 265 265 265 266 266 266 266 266 267 268 269 270 271 272 273 273 273 273 273 273 273 273 273 273 273 273 273 273 273 272 272 272 271 271 271 270 270 271 271 272 273
270 269 269 268 268 268 268 267 267 267 266 266 266 266 266 266 266 266 266 266 266 265 265 265 265 265 265 265 265 265 265 265 264 264 263 263 263 263 263 262 262 262 263 263 264 264 265 265 265 265 266 266 267 268 269 270 270 271 272 272 272 272 272 272 272 273 273 273 273 273 272 272 272 272 272 272 271 271 270 270 270 271 271 272 272
269 269 268 268 268 267 267 267 267 266 266 265 266 266 266 266 266 266 266 266 265 265 265 265 265 265 265 265 265 265 265 264 264 263 263 262 262 262 262 262 261 261 262 262 263 263 264 265 265 265 266 266 266 267 268 269 270 270 271 271 272 272 272 272 272 272 272 272 272 272 272 272 272 272 272 271 271 271 270 270 270 270 271 271 272
269 268 268 267 267 267 267 267 266 266 265 265 265 265 265 265 265 265 265 265 265 265 265 265 265 265 264 264 264 265 264 264 264 263 262 262 262 261 261 261 261 261 262 262 262 263 264 265 265 265 266 266 266 267 267 268 269 269 270 270 271 271 271 271 271 272 272 272 272 272 272 272 272 272 271 271 271 271 271 270 270 270 271 271 272
268 268 267 267 267 267 267 266 266 265 265 265 265 265 265 265 265 265 265 264 264 264 264 265 265 264 264 264 264 264 264 264 263 262 262 262 261 261 261 261 261 261 261 262 263 264 264 265 265 265 266 266 266 266 267 267 268 269 269 270 270 270 270 271 271 271 271 271 271 271 271 271 271 271 271 271 271 271 271 271 270 270 270 271 272
268 267 266 266 266 266 266 266 266 265 265 265 264 265 265 265 264 264 264 264 264 264 264 264 265 264 264 264 264 264 264 263 263 262 261 261 261 261 261 261 261 261 262 263 264 264 265 265 265 266 266 266 266 266 267 267 268 268 269 269 269 270 270 270 270 270 270 271 271 271 271 271 271 271 271 271 271 272 272 272 271 271 271 271 272
267 267 266 266 266 266 266 266 265 265 265 264 264 264 264 264 264 264 263 264 264 264 264 264 264 264 264 264 264 264 264 263 262 261 260 261 261 261 261 261 261 262 262 264 265 265 265 265 266 267 267 267 267 267 267 267 268 268 268 269 269 269 270 270 270 270 270 270 270 270 270 271 271 271 271 271 272 272 273 273 272 272 272 272 273
267 267 266 266 266 265 265 265 265 265 264 264 264 264 264 264 264 263 263 264 264 264 264 264 264 264 264 264 264 264 264 263 262 260 260 260 261 261 261 261 262 262 263 264 265 265 266 266 267 267 268 268 267 267 267 268 268 269 269 269 269 269 270 270 270 270 270 270 270 270 270 270 270 270 271 271 271 272 273 273 273 273 273 273 273
267 266 266 265 265 265 265 265 265 264 264 264 263 264 264 264 263 263 263 263 263 263 264 264 264 264 264 264 264 264 264 264 262 260 260 260 261 261 261 261 262 262 263 264 265 266 266 266 267 268 269 268 268 268 268 268 269 269 270 270 270 269 269 270 270 270 270 270 270 270 270 270 270 270 271 271 272 272 273 273 274 274 274 274 274
266 266 266 265 265 265 265 265 265 264 264 264 263 263 263 263 263 263 263 263 263 263 264 264 263 264 264 264 264 264 264 264 262 260 260 260 260 260 261 261 262 262 263 264 265 266 266 267 268 269 269 269 268 268 268 269 269 269 270 270 270 270 269 270 270 270 270 270 271 271 271 270 270 270 271 271 272 272 273 273 274 274 275 275 275
266 266 265 265 265 265 265 265 265 264 264 264 263 263 263 263 263 263 263 263 263 263 263 263 263 263 263 263 263 263 264 264 263 261 260 260 261 260 260 261 262 262 263 264 265 266 267 268 269 269 269 269 269 269 269 270 270 270 270 270 270 270 270 270 270 270 271 271 271 271 271 271 271 271 272 272 272 273 273 274 274 274 275 275 276
265 265 265 265 264 264 264 264 264 264 264 263 263 263 262 262 263 263 262 262 262 263 263 263 263 263 263 263 263 263 263 263 263 262 260 261 262 261 260 261 262 262 263 264 265 267 268 268 269 270 270 270 270 270 270 271 271 271 271 271 271 271 271 270 270 270 271 271 271 271 272 272 272 272 272 272 273 273 274 274 275 275 275 275 276
265 265 265 264 264 264 264 264 264 264 264 263 263 263 263 262 262 262 262 262 262 262 263 263 263 263 263 262 262 262 262 262 263 262 260 260 261 261 261 261 261 262 263 264 266 267 268 268 269 269 270 270 270 271 271 271 272 272 272 272 271 271 271 270 270 271 271 271 272 272 272 272 272 272 273 273 274 274 275 275 275 275 275 276 276
265 265 265 264 264 264 264 264 264 264 263 263 263 263 263 262 262 262 262 262 262 262 263 263 262 262 262 262 262 262 261 261 262 262 261 261 260 260 260 261 262 262 263 265 266 267 268 268 268 269 270 270 271 271 272 272 272 273 272 272 272 271 271 270 270 271 271 271 272 272 272 273 273 273 274 274 275 275 275 275 275 276 276 276 276
265 265 265 264 264 264 263 264 264 264 263 263 263 263 262 262 262 262 262 262 262 262 262 262 262 262 262 262 262 262 261 261 260 261 261 262 262 261 261 261 261 262 264 266 267 267 268 268 268 269 270 270 271 271 272 272 273 273 273 272 272 272 271 271 271 271 272 272 272 272 273 273 273 274 274 274 274 274 274 275 275 275 275 275 276
265 265 264 264 264 264 264 264 264 263 263 263 263 262 262 262 262 262 262 262 261 262 262 262 262 262 262 262 261 261 261 261 260 260 260 261 263 264 264 263 262 263 265 266 267 267 268 268 268 269 269 270 270 271 272 272 272 273 273 273 272 272 272 271 272 272 272 272 272 272 273 273 273 274 274 274 274 274 274 274 274 274 274 274 274
Wind_Speed
16 14 13 12 12 11 11 10 8 8 9 8 9 12 15 17 20 24 27 30 32 33 33 30 27 26 27 26 26 25 24 25 24 23 23 22 21 20 19 19 19 18 18 18 19 20 21 21 21 21 22 24 25 25 25 25 25 25 26 26 27 28 27 25 25 27 30 32 33 33 33 31 30 30 30 30 29 29 28 28 28 27 26 25 23
16 15 13 12 12 12 11 9 7 8 8 8 10 13 15 18 23 27 29 32 33 34 32 29 27 27 28 28 28 28 27 28 29 28 27 26 25 24 23 21 21 20 19 19 20 22 22 22 22 21 22 23 25 26 26 26 26 26 27 27 27 28 29 26 24 27 30 31 33 36 37 34 31 30 29 29 28 28 28 28 29 28 27 24 22
18 16 14 13 12 12 10 7 7 6 5 7 10 13 16 20 24 27 30 32 33 33 31 29 28 28 28 28 29 29 30 31 33 32 31 31 30 29 27 25 23 23 22 22 24 25 26 25 24 23 23 23 25 26 26 27 27 26 27 28 28 29 29 27 25 26 29 31 30 31 31 30 31 30 26 24 23 23 25 25 26 26 25 24 23
18 16 15 12 11 11 9 7 6 4 4 7 11 15 19 22 25 27 30 32 33 32 30 29 30 29 29 29 29 30 32 33 34 34 33 33 33 32 31 29 27 26 26 27 28 29 30 29 28 26 25 24 25 27 28 27 28 28 27 27 28 30 30 29 27 27 29 29 26 24 23 22 25 24 22 23 21 21 24 24 24 25 25 24 25
19 17 15 12 10 11 9 6 4 2 5 10 14 17 20 22 24 27 30 33 34 32 30 30 31 31 31 31 31 32 33 34 35 35 34 34 35 34 34 33 31 31 30 31 32 33 32 31 31 30 28 26 26 28 29 29 29 29 28 28 28 29 31 30 29 29 29 29 28 27 24 19 19 19 21 25 23 20 21 22 24 25 24 25 26
19 17 15 13 11 9 7 5 4 5 9 13 16 18 19 21 24 26 31 35 37 34 30 28 29 30 32 33 34 35 35 36 36 37 37 36 37 37 36 35 34 34 33 33 34 34 34 33 32 32 30 29 28 28 29 29 30 29 29 30 29 28 30 32 32 30 30 31 32 33 31 27 28 27 25 27 28 26 24 22 23 24 25 26 26
18 16 14 13 9 7 7 6 6 8 11 14 16 18 19 22 24 27 32 37 40 38 34 31 29 29 30 32 34 35 37 38 38 38 38 38 38 38 37 36 35 35 35 34 35 34 35 34 33 32 32 31 29 29 29 28 29 29 29 31 31 30 30 33 33 31 30 32 32 34 36 36 36 35 32 29 30 33 32 27 25 25 26 28 29
17 15 13 12 10 9 7 7 8 10 12 14 16 18 20 22 24 27 33 39 41 40 39 36 33 32 32 32 33 33 35 37 37 38 38 38 40 40 39 38 36 36 36 36 35 35 35 35 34 33 32 32 30 29 30 28 27 28 29 30 31 31 31 33 33 32 32 33 33 33 36 37 36 36 36 34 32 34 38 36 31 29 28 29 30
16 14 13 12 9 8 7 7 8 11 14 16 18 19 21 23 25 29 35 41 42 42 42 40 38 35 34 34 35 33 33 35 36 37 37 37 39 40 39 39 37 37 37 36 36 36 36 35 34 33 33 33 31 30 30 29 28 28 28 30 31 32 33 34 35 34 34 34 33 34 36 37 37 37 36 36 36 36 40 41 38 35 35 33 32
15 14 12 10 8 6 6 8 10 13 15 17 19 20 22 25 27 33 40 43 45 45 45 45 42 38 36 35 35 35 36 37 38 38 38 37 37 39 39 39 39 38 37 37 37 37 37 36 35 35 34 33 33 32 31 30 30 29 28 28 30 33 34 35 37 37 36 35 34 35 36 37 37 37 37 36 36 36 39 42 39 37 40 39 36
15 13 10 8 7 7 8 10 12 15 17 18 19 22 24 27 31 38 43 45 47 48 48 47 45 41 38 36 35 35 35 37 38 39 38 36 35 37 39 40 39 38 37 37 38 39 38 36 35 36 36 35 34 34 33 32 31 31 29 28 29 32 34 35 37 38 38 38 37 36 37 38 38 39 39 37 35 36 38 41 40 36 39 42 39
13 13 12 11 11 11 11 13 16 17 17 18 21 24 26 30 37 43 46 47 49 50 49 48 45 42 38 36 34 33 34 36 37 37 37 35 34 36 38 40 39 38 38 38 39 39 38 36 36 36 37 37 36 35 34 33 32 33 32 30 29 29 31 34 37 38 39 39 39 38 37 38 39 40 41 38 37 38 37 39 41 36 35 41 41
15 15 15 15 12 12 14 17 18 17 17 20 23 26 30 36 43 46 47 47 48 49 48 45 41 38 35 34 34 34 35 36 35 36 36 35 35 36 38 39 39 38 37 37 38 37 37 36 36 37 38 39 38 37 36 35 35 35 35 34 32 30 30 32 35 37 38 40 40 40 39 39 40 40 41 40 40 39 38 40 41 36 34 40 41
17 16 14 12 12 15 18 19 17 16 18 21 25 29 36 42 45 44 45 46 46 45 43 40 37 35 35 36 36 34 33 32 31 31 32 32 33 35 36 37 37 37 37 37 37 37 37 36 36 38 39 40 40 40 39 38 38 39 39 38 35 32 30 31 34 35 37 39 40 41 41 40 41 40 40 40 40 39 39 39 39 36 35 39 40
17 13 10 11 14 18 20 17 16 17 21 25 30 36 42 44 44 44 46 46 45 44 42 39 39 39 38 36 33 29 27 28 28 29 29 30 32 33 35 35 35 36 37 38 37 36 36 35 35 37 39 41 41 41 42 42 41 40 40 39 36 33 32 33 34 36 37 39 40 41 42 42 41 41 40 41 40 40 40 40 37 35 34 36 38
14 10 12 13 17 19 17 15 17 20 26 31 36 42 44 45 46 47 47 45 44 43 43 42 41 38 34 30 29 29 30 31 32 33 33 33 34 35 35 36 35 36 36 35 34 34 34 34 34 36 37 40 41 42 44 44 41 39 39 38 36 33 33 35 36 37 38 39 40 41 42 43 42 41 41 41 41 40 40 39 38 36 33 33 34
10 10 13 15 19 19 14 15 20 25 31 36 41 44 44 44 46 46 45 43 43 43 42 41 38 34 31 31 34 36 37 36 36 36 36 35 35 35 35 35 34 33 34 34 34 34 34 34 35 35 36 38 40 42 44 42 39 39 38 37 36 34 35 37 37 39 40 40 41 42 42 43 42 41 41 41 41 40 40 40 39 38 35 33 32
8 10 14 18 20 17 14 19 25 31 36 40 42 43 43 43 44 44 44 45 44 43 40 37 34 33 35 39 41 40 37 35 33 32 31 30 30 30 30 31 32 32 34 35 35 35 34 33 33 33 34 34 35 39 40 39 38 38 38 38 37 36 37 39 39 40 41 41 42 43 43 44 43 41 41 41 41 40 40 40 40 39 37 37 36
9 11 16 20 19 16 18 26 31 36 40 42 44 44 44 44 43 43 44 44 42 39 36 33 33 37 42 42 40 36 33 31 30 29 28 26 26 25 27 29 31 33 35 35 36 36 36 35 33 32 32 31 30 32 35 36 37 38 39 39 38 36 38 40 41 41 42 42 43 44 44 44 43 42 41 41 41 40 41 41 41 40 37 38 39
11 15 20 22 20 20 25 31 35 39 42 44 45 46 45 44 44 44 45 43 40 37 35 36 40 43 43 39 35 32 31 30 28 26 24 23 24 26 29 32 34 37 38 37 37 36 36 36 35 35 35 33 33 33 34 35 36 38 38 38 36 35 38 40 41 42 42 43 44 44 44 44 43 42 41 41 41 41 41 41 41 41 38 38 39
12 18 23 22 22 25 30 34 38 42 43 44 45 45 44 44 44 45 44 41 38 37 39 42 43 42 39 36 33 31 29 28 27 26 25 27 29 32 35 38 40 42 44 43 43 42 41 38 36 36 36 35 36 36 36 35 36 36 36 36 35 36 38 40 41 42 43 43 44 44 44 44 42 42 42 41 41 40 40 40 40 40 39 38 38
15 21 23 23 25 29 33 36 39 41 41 42 44 43 43 43 43 42 39 37 36 39 42 42 41 38 35 32 30 30 32 33 32 31 32 34 38 40 42 44 47 49 49 49 49 49 48 45 42 38 36 34 35 35 35 34 33 35 35 35 35 36 37 39 40 42 43 43 43 43 44 43 42 42 42 41 41 40 39 39 39 39 39 38 37
18 21 23 23 26 30 33 36 38 39 40 43 43 42 41 41 41 39 36 34 37 41 41 40 38 35 31 30 33 38 40 40 39 37 36 37 40 42 43 45 47 48 48 47 46 46 47 47 47 46 43 40 39 37 35 33 32 33 35 36 36 35 37 39 40 42 43 42 43 43 43 42 41 41 41 41 40 39 39 39 39 38 38 38 37
20 21 22 24 27 30 33 36 39 41 43 45 43 41 41 41 40 38 35 37 40 40 39 38 35 31 31 37 41 43 43 43 43 42 42 41 41 42 42 43 44 45 44 43 40 38 38 39 40 41 43 43 44 43 39 37 35 34 35 35 35 34 35 37 40 42 42 42 42 43 42 41 40 41 40 39 38 38 38 38 37 37 37 37 36
19 20 23 25 28 31 34 38 41 43 45 43 39 39 41 40 39 38 38 40 40 40 39 37 31 31 38 44 45 44 44 44 44 45 45 45 44 44 43 43 43 43 43 42 38 35 34 36 35 34 35 36 38 40 41 40 39 37 37 36 35 35 35 36 39 41 42 42 42 42 41 40 40 40 39 38 37 36 36 36 36 36 35 35 35
20 22 24 26 30 34 37 41 42 43 43 40 38 39 39 39 39 39 39 41 41 41 39 33 31 37 44 46 45 45 45 46 46 46 46 46 46 46 45 44 44 43 42 41 39 37 37 39 39 37 36 35 33 34 36 37 38 38 39 39 38 37 36 37 39 40 41 41 41 41 40 40 40 40 39 38 37 36 35 35 35 35 34 34 33
22 24 27 30 34 37 40 41 41 41 41 38 39 39 39 40 41 41 41 42 42 41 36 31 36 43 46 45 46 46 46 47 47 48 48 48 47 47 46 46 45 44 43 42 40 39 37 37 37 35 34 34 34 35 37 39 40 41 41 40 39 38 37 38 39 39 40 40 40 40 39 40 39 39 39 38 37 36 35 35 34 34 33 33 32
23 26 29 32 36 38 40 41 41 41 40 38 39 39 39 41 41 42 42 42 43 40 34 34 41 45 46 46 47 47 47 47 48 48 49 48 48 47 47 46 45 44 42 41 40 39 37 34 32 29 27 26 29 32 34 36 38 38 38 38 38 38 38 38 38 38 38 38 38 38 38 38 38 38 38 37 36 35 34 34 33 33 32 32 32
24 27 29 32 36 39 41 41 41 40 38 38 39 39 40 41 41 42 42 42 42 39 35 39 44 45 45 46 46 47 47 47 48 49 48 48 47 47 46 45 43 42 40 39 37 36 35 33 30 27 26 28 30 33 34 34 35 36 37 38 38 37 36 37 37 36 36 36 36 36 36 36 37 37 37 36 35 35 34 33 33 32 32 32 31
25 28 30 34 38 38 39 40 39 38 38 38 39 39 40 40 41 42 42 42 41 38 38 41 44 44 45 46 46 47 47 47 48 48 47 47 47 46 45 43 41 39 38 37 35 33 32 32 30 29 29 30 32 34 34 34 34 35 37 38 38 37 35 34 34 34 34 34 34 35 34 34 35 35 35 35 34 32 30 30 31 31 32 32 32
29 30 32 36 37 37 38 38 37 36 37 38 38 39 39 40 42 42 42 42 40 38 40 42 43 44 45 46 46 47 47 47 47 47 47 47 46 45 43 41 39 37 36 35 34 32 31 31 31 31 31 30 29 28 28 30 32 32 33 34 36 36 34 32 31 31 32 32 32 33 32 32 33 34 34 34 32 29 26 26 27 28 29 30 30
32 31 34 36 35 36 38 37 35 35 36 37 38 38 39 41 42 42 42 41 40 39 41 42 43 44 45 46 46 47 47 47 47 47 46 45 45 43 42 39 37 36 35 34 33 33 32 31 31 31 31 30 29 27 27 29 30 30 31 31 33 33 33 31 30 29 28 29 30 30 30 31 32 33 33 33 32 30 28 28 27 26 27 28 28
33 32 34 34 34 36 37 35 34 34 35 37 36 37 39 41 41 42 41 41 41 40 41 42 44 44 45 46 46 47 47 47 47 47 46 44 43 42 40 38 37 36 35 35 34 33 32 31 31 32 31 30 28 29 30 30 30 30 29 27 28 29 29 29 28 27 27 27 27 27 29 31 30 29 29 29 29 30 31 31 30 29 29 28 27
32 32 33 33 34 35 35 34 33 34 35 36 36 36 39 40 40 41 41 41 41 41 42 43 44 45 45 45 46 47 47 47 47 46 44 43 41 40 38 36 36 36 36 35 34 34 33 32 31 32 32 30 29 30 31 30 29 28 24 22 24 25 24 25 26 26 26 25 24 26 28 28 27 26 23 22 23 25 28 30 31 31 32 30 26
32 32 32 32 34 35 35 34 33 34 36 36 37 38 39 40 40 41 41 41 41 42 42 43 44 44 45 45 46 47 47 47 46 44 43 42 40 39 38 36 36 36 36 36 35 34 34 33 32 33 34 34 32 30 29 28 26 24 20 19 22 23 21 21 22 23 24 24 24 25 26 27 27 25 23 20 20 21 23 25 28 29 32 33 28
30 29 30 32 33 35 35 34 33 35 36 37 38 39 39 40 40 40 41 41 41 42 43 44 45 45 45 45 46 47 47 46 45 43 42 40 40 40 39 38 38 38 37 37 34 33 34 34 33 34 36 36 32 28 26 25 23 21 19 18 20 20 19 19 19 20 21 21 22 24 25 26 25 25 23 21 19 19 20 21 23 24 28 33 33
29 28 30 31 32 33 34 34 34 35 36 37 38 38 40 41 41 41 41 41 42 43 44 45 45 45 45 46 46 46 46 45 43 42 41 40 40 40 40 40 41 41 40 38 35 34 35 35 35 36 36 34 30 25 24 23 21 19 18 17 18 18 18 18 18 18 18 19 20 22 23 23 23 23 22 21 19 18 19 21 22 21 22 28 34
30 30 30 31 32 33 33 33 34 34 35 36 37 38 39 40 41 41 42 42 43 44 44 45 46 46 46 46 45 45 44 43 42 40 40 40 40 41 42 42 42 43 42 40 37 37 36 36 35 34 32 31 29 25 23 22 20 18 17 16 16 16 17 17 18 18 19 20 20 22 22 22 22 21 20 20 20 19 20 22 23 23 21 23 29
30 29 29 31 32 33 32 32 33 34 35 36 37 37 39 40 40 41 41 42 44 44 45 46 46 45 46 45 45 44 43 41 40 39 39 40 41 42 43 43 43 42 42 40 38 36 35 34 34 33 31 29 27 24 21 20 19 18 17 16 15 15 15 16 16 17 18 19 20 22 22 21 22 22 21 21 21 21 21 22 23 25 26 23 21
30 28 28 30 32 33 33 33 33 34 35 36 37 38 38 39 39 40 41 42 44 44 45 45 45 45 45 44 43 43 41 39 38 38 38 39 41 42 43 43 42 42 41 39 35 33 34 34 34 33 31 28 25 23 21 19 18 17 17 15 14 14 14 15 15 16 17 19 21 22 23 23 22 22 22 22 21 20 22 22 22 25 28 24 17
29 27 28 31 32 32 32 32 33 34 35 36 37 38 38 38 39 40 41 42 43 44 44 45 45 44 44 43 42 41 40 38 36 37 39 40 40 41 42 42 42 40 39 36 33 32 34 36 35 34 32 28 24 22 20 18 17 16 15 15 14 14 15 15 16 17 19 21 22 23 24 24 24 23 23 22 22 21 21 22 23 25 25 21 16
29 28 29 31 32 32 32 32 32 33 35 36 37 38 38 38 39 40 41 42 42 43 44 44 44 44 43 43 43 41 39 37 36 38 40 40 40 40 40 40 39 38 37 34 32 33 36 38 37 34 30 27 23 20 19 18 15 14 13 13 14 14 15 15 17 19 20 22 24 25 25 26 25 24 22 22 23 22 22 23 23 23 21 19 17
29 29 31 31 32 33 33 32 33 33 34 35 36 37 38 38 39 40 41 42 42 43 44 44 44 44 43 43 43 41 39 37 37 38 40 40 40 40 40 39 37 37 37 35 33 35 38 41 39 34 29 27 26 22 19 17 16 13 12 13 14 14 14 15 17 20 20 21 23 24 26 27 26 24 23 22 22 22 22 23 22 21 20 18 17
29 31 31 31 33 34 33 33 33 33 34 35 36 37 38 38 38 40 41 42 43 43 44 44 44 43 43 43 42 41 39 37 37 39 40 40 41 41 40 38 36 37 38 37 36 38 41 43 41 35 29 28 27 22 17 14 13 12 11 12 14 14 14 14 16 18 19 20 20 20 19 20 21 21 21 21 20 20 21 21 20 21 21 19 19
29 30 31 32 33 33 34 34 33 33 34 35 35 35 37 38 38 39 41 42 43 44 44 44 44 43 43 43 42 41 39 37 37 39 40 41 41 41 40 37 36 38 39 38 38 41 44 44 41 35 31 29 25 20 15 11 9 9 8 8 10 14 15 15 16 18 18 16 14 14 14 15 15 16 17 17 18 19 19 19 19 20 21 21 22
30 30 31 32 32 32 33 34 33 34 34 35 34 33 35 37 38 39 40 41 42 43 44 44 44 44 43 43 43 42 40 38 37 38 39 40 40 40 39 37 37 39 39 38 39 42 44 43 39 33 28 25 21 15 12 11 10 10 9 8 8 10 14 16 16 17 16 12 9 10 11 11 10 9 10 12 14 14 15 17 20 20 21 21 23
29 30 30 31 32 33 34 34 35 35 35 34 34 33 33 35 36 38 39 40 41 42 43 43 44 44 44 43 42 41 40 39 38 39 40 39 38 38 38 37 37 38 38 38 40 42 40 40 39 33 26 22 18 14 13 13 12 11 10 9 10 10 10 13 15 15 14 12 9 8 6 6 6 8 9 12 14 15 15 16 19 20 20 21 22
29 29 30 31 32 33 33 34 35 36 35 35 34 33 33 34 35 37 39 40 41 41 42 42 43 44 44 42 41 40 40 40 39 39 40 40 38 38 37 35 34 35 36 37 39 38 36 36 38 36 29 21 16 15 17 17 16 16 16 13 11 11 9 9 14 15 11 9 9 8 7 8 9 10 12 12 13 14 14 15 17 19 21 22 22
29 28 29 30 31 32 33 34 34 35 35 35 34 33 33 34 35 36 38 39 40 41 41 41 43 43 43 42 41 39 39 40 40 39 40 39 37 35 34 33 33 31 29 31 32 30 31 32 34 36 33 25 19 19 21 22 21 20 17 13 11 12 8 7 13 11 6 5 6 6 6 6 4 5 6 6 7 8 9 10 12 13 16 20 20
28 28 29 29 30 31 32 33 34 34 34 34 33 32 33 33 34 36 37 38 39 40 40 41 42 43 42 41 40 39 39 39 39 39 40 40 37 34 30 30 32 29 23 22 24 24 25 27 29 33 33 28 23 23 22 21 20 16 10 8 10 11 5 6 11 7 5 5 6 5 3 3 6 8 7 6 6 6 6 8 9 9 10 12 13
28 29 30 30 30 31 32 32 33 33 33 33 32 32 32 33 34 35 35 36 37 38 39 40 40 41 41 40 39 39 39 39 38 38 40 40 40 38 32 29 30 28 23 20 21 21 22 23 24 28 30 27 24 24 20 18 18 16 13 10 9 8 6 5 5 3 3 4 4 4 4 5 7 7 5 5 5 5 5 6 6 6 7 8 9
Wind_Direction
116 109 97 87 80 77 69 59 68 80 69 46 27 16 13 10 3 0 359 356 354 353 353 350 343 338 334 331 330 329 331 332 331 329 325 320 316 315 316 317 316 315 316 315 315 316 315 316 316 317 318 316 314 314 314 313 312 310 308 305 301 297 293 291 293 295 292 291 292 292 290 288 286 284 283 281 281 278 274 270 269 269 269 269 267
109 101 91 85 80 77 68 68 85 86 69 41 21 16 11 3 359 359 358 355 355 355 354 350 345 340 336 333 331 329 330 332 332 332 330 326 320 315 312 313 313 313 315 316 317 318 316 313 311 312 312 312 311 311 312 311 310 310 308 305 303 300 297 293 292 292 290 291 295 294 292 290 287 286 286 285 281 277 273 268 267 267 266 267 264
99 91 86 83 80 78 74 87 102 90 65 30 15 8 1 357 357 357 356 355 356 355 353 348 343 339 334 331 328 325 327 329 329 330 330 329 327 322 315 310 310 312 315 319 322 323 320 315 311 309 308 306 306 307 307 308 308 308 306 303 302 300 297 295 292 290 290 292 292 288 291 295 293 291 291 291 286 279 273 268 265 264 265 265 261
93 86 82 80 76 78 83 108 115 88 45 18 6 360 357 358 357 355 355 355 354 352 349 344 339 335 331 328 325 322 321 324 325 327 327 326 326 325 322 315 311 312 316 320 322 323 322 319 316 312 310 305 301 301 301 303 305 305 304 302 301 298 297 296 294 291 289 288 284 280 286 293 290 292 294 290 288 283 274 268 265 263 263 261 259
91 87 81 76 76 87 98 119 121 58 25 10 2 359 357 356 354 355 357 356 354 348 344 341 337 334 330 326 323 320 319 320 321 323 323 322 321 322 323 320 316 314 316 318 318 318 318 319 319 317 316 312 304 298 297 299 300 301 303 302 299 296 296 296 293 291 288 285 279 275 276 277 277 286 294 289 284 281 274 268 264 262 261 259 261
86 82 77 72 76 93 108 111 76 32 17 7 2 357 353 351 351 355 357 356 356 352 346 340 336 335 332 327 323 319 317 317 318 319 319 318 318 318 319 319 316 313 313 314 314 313 313 314 316 316 316 316 313 304 298 297 297 299 301 300 298 296 295 293 290 291 291 288 282 277 274 271 273 278 283 284 280 275 271 268 265 262 261 261 265
81 75 70 69 77 95 97 78 43 19 9 2 355 348 346 348 349 352 353 355 357 356 350 341 333 330 329 327 324 320 316 314 315 315 315 315 314 314 315 316 315 313 310 310 308 308 309 308 311 312 312 313 315 310 302 298 296 297 298 297 297 297 292 289 290 293 292 288 285 282 279 275 274 272 270 273 278 278 273 267 261 257 258 261 264
75 69 65 72 86 90 75 49 25 8 359 352 347 343 344 346 347 349 351 352 354 354 351 345 335 325 320 319 320 320 317 314 313 312 311 311 310 310 311 312 312 311 309 307 305 305 305 304 306 307 307 308 310 311 309 304 297 294 294 294 294 294 292 290 290 290 287 288 288 284 281 279 275 270 268 266 267 272 273 269 262 257 256 258 261
67 64 69 80 86 77 52 24 5 354 349 347 345 344 343 343 345 346 347 348 350 349 348 346 340 330 320 314 312 312 312 311 311 311 309 308 307 306 307 308 309 309 307 305 304 304 303 302 301 302 303 304 305 307 308 306 301 296 292 292 292 292 292 290 288 286 284 286 288 284 281 279 276 272 270 264 259 262 268 270 268 266 263 259 257
63 66 75 80 73 54 16 348 341 343 346 346 344 343 342 343 344 343 343 345 346 346 345 344 341 335 326 320 314 310 309 309 310 309 310 309 306 305 305 305 307 308 306 304 303 303 302 299 297 297 299 299 300 302 304 304 302 299 293 290 290 291 290 289 287 287 284 283 283 282 279 275 272 270 268 264 259 257 261 266 267 268 269 267 262
63 63 64 56 30 1 341 335 341 349 350 346 344 343 342 342 341 340 341 342 342 342 342 340 339 335 329 324 320 317 315 315 314 312 313 313 311 311 308 307 308 309 307 304 303 303 302 299 296 295 295 295 296 298 300 300 299 298 294 289 286 286 288 288 287 286 283 281 279 278 276 274 269 267 267 265 261 259 259 264 266 265 268 271 270
49 40 26 7 353 347 348 351 356 357 352 348 346 344 341 340 339 339 340 341 340 340 339 337 335 333 329 325 322 320 319 318 317 315 315 315 314 314 313 310 310 309 307 305 304 303 302 300 298 294 292 292 293 295 296 296 296 295 293 290 286 283 284 284 284 284 282 280 278 277 277 276 271 267 267 264 262 262 261 264 267 266 267 270 271
27 14 360 353 358 4 3 2 4 2 353 348 345 342 340 339 340 340 340 340 338 337 336 334 333 331 328 324 320 318 317 318 319 317 317 317 315 315 313 312 311 309 309 308 307 305 302 301 299 295 292 292 293 293 292 293 293 293 292 290 288 284 283 282 281 282 282 281 279 277 276 275 273 269 267 264 262 262 261 262 265 266 266 269 270
10 357 355 7 20 13 5 4 5 358 350 345 342 340 340 341 342 341 339 338 336 335 335 334 333 329 325 322 321 321 321 320 320 319 317 316 315 314 312 310 309 308 309 310 308 305 302 300 298 295 292 292 293 291 290 290 292 292 291 289 287 285 283 281 280 280 280 280 278 277 274 274 274 271 267 263 261 260 259 260 263 265 265 267 269
0 1 24 34 22 10 6 6 1 352 347 344 342 342 342 343 342 340 337 336 336 336 336 334 330 327 325 324 323 322 318 314 312 310 309 309 309 310 309 309 309 309 308 308 307 305 303 300 298 295 292 291 291 291 289 287 286 286 287 285 283 283 281 278 278 277 277 277 276 275 275 274 273 271 266 262 259 258 258 258 260 262 264 266 268
360 25 41 27 12 9 8 3 355 350 347 345 344 343 343 342 340 337 336 335 336 336 335 332 330 329 330 327 321 316 313 309 306 303 301 300 301 303 304 306 308 308 306 306 306 305 303 301 298 296 295 293 291 290 287 282 279 280 282 282 281 281 279 277 277 276 275 276 275 274 273 272 272 271 267 262 259 257 257 257 257 256 259 264 267
7 36 30 13 9 9 5 357 351 348 347 345 343 343 342 340 337 336 335 335 336 336 334 332 332 333 331 325 321 320 318 315 311 308 304 302 301 302 302 303 304 303 300 300 301 301 301 300 298 295 294 293 293 291 284 276 275 277 278 280 280 279 278 277 277 276 275 275 274 272 270 270 271 270 266 263 259 257 255 255 256 254 253 257 262
25 30 17 7 9 10 0 352 349 347 345 343 342 342 340 338 337 336 336 336 337 336 335 335 335 332 328 326 326 325 324 323 324 323 320 317 316 314 310 306 301 298 297 297 298 298 299 298 297 295 293 291 292 289 281 275 275 276 276 278 279 278 277 276 276 275 275 275 273 271 269 267 268 267 266 264 259 256 256 254 255 254 251 251 254
28 20 11 8 11 8 354 348 346 344 343 341 341 341 340 338 337 337 337 338 339 338 338 338 334 330 329 330 330 330 334 338 339 338 336 331 324 318 313 307 302 300 300 302 303 303 303 300 297 295 291 288 287 283 277 275 276 275 275 277 277 277 277 275 275 274 274 273 271 269 267 265 265 265 264 263 260 257 256 256 256 255 252 251 253
24 14 7 7 6 357 348 345 342 341 340 340 341 340 339 338 338 338 339 340 340 341 340 336 333 332 332 332 334 340 345 344 340 337 333 322 310 305 305 303 301 300 300 300 302 302 303 303 301 298 294 289 285 283 279 278 277 276 276 276 276 276 276 275 275 274 272 270 268 266 265 263 262 262 262 262 260 258 258 257 257 256 254 254 255
13 5 2 1 356 347 343 341 338 338 339 340 341 340 339 339 339 339 340 340 341 340 337 335 334 334 334 336 342 348 345 334 326 321 314 306 300 299 298 297 296 295 295 295 294 294 295 296 298 299 297 293 290 288 286 283 281 279 277 276 276 276 275 275 275 273 271 268 265 263 262 261 259 259 260 260 259 259 259 258 257 256 255 255 256
1 359 358 354 348 342 338 337 337 340 341 341 341 340 339 339 339 340 341 341 340 337 336 335 335 335 338 342 344 339 330 323 319 314 307 302 299 297 296 295 294 294 294 294 292 290 288 287 288 289 290 290 290 289 287 284 281 279 277 275 275 275 275 275 273 271 269 266 263 260 258 258 257 257 259 259 259 259 258 258 256 256 256 256 256
353 352 351 346 342 338 337 339 341 343 341 340 341 340 339 340 341 343 344 341 337 336 336 335 335 339 343 339 332 328 326 326 324 320 315 310 306 303 302 301 300 300 300 300 297 294 289 286 284 283 282 282 283 285 286 282 278 275 275 274 273 273 274 274 272 270 268 264 261 258 256 256 255 256 257 258 259 258 257 257 256 256 257 257 257
348 347 346 341 338 338 341 343 343 342 340 340 341 339 340 342 343 345 343 338 337 337 336 337 339 340 337 332 330 331 330 330 329 327 325 322 318 316 314 311 309 308 307 307 305 302 298 293 289 286 284 282 280 281 282 280 277 274 273 274 274 275 274 273 272 269 266 263 259 256 255 254 254 255 256 258 258 257 255 255 255 256 257 258 259
345 345 343 339 340 343 344 343 342 339 339 341 341 339 341 343 345 345 341 338 339 339 338 341 341 335 332 333 334 333 332 332 331 330 328 326 325 323 321 319 317 315 313 312 309 304 299 294 288 285 284 283 282 282 281 279 277 275 275 276 277 277 276 274 272 268 264 261 257 256 255 255 254 254 255 256 256 255 254 254 255 256 256 258 259
345 343 341 341 344 344 343 341 340 339 340 341 340 339 341 343 344 343 340 340 341 341 342 343 336 331 333 335 335 334 334 334 332 331 329 328 328 326 325 324 322 319 317 315 310 305 299 295 290 284 279 276 277 280 279 278 278 277 277 279 279 279 277 274 271 266 262 259 257 256 256 254 254 254 255 256 255 254 253 253 254 256 257 258 259
342 340 341 342 343 342 340 340 339 339 340 340 339 340 341 342 342 342 342 343 342 342 343 338 331 332 335 336 336 336 335 334 332 332 331 329 329 328 327 326 325 322 320 317 315 312 308 303 298 293 286 279 276 277 278 279 279 279 278 278 278 278 277 272 267 263 260 258 256 256 256 255 255 256 257 257 256 254 253 253 254 257 258 258 258
341 342 344 344 343 341 340 339 338 339 339 340 340 340 340 341 341 342 343 343 342 342 340 333 332 335 337 337 337 336 335 334 333 332 330 329 328 328 327 326 325 323 322 321 320 317 315 311 305 299 296 294 291 287 285 285 283 280 276 276 277 277 274 269 263 260 258 257 257 256 256 256 256 257 258 258 257 256 254 254 255 256 257 257 257
346 347 347 345 342 339 338 338 338 339 339 340 340 339 339 340 341 342 343 343 343 342 337 333 335 337 337 338 337 335 334 334 332 331 329 329 328 327 327 326 325 324 323 322 321 318 318 316 311 304 300 299 294 287 283 283 282 279 276 278 278 275 270 265 261 259 258 257 257 256 256 256 257 258 259 258 258 257 256 256 255 254 254 255 256
349 349 346 342 339 337 337 337 338 339 339 340 340 338 339 340 341 342 343 342 342 340 336 335 337 337 337 338 336 335 334 333 332 331 329 328 327 326 326 325 324 324 323 322 321 319 318 317 315 311 304 298 292 288 285 283 280 277 276 277 276 272 267 263 260 259 257 257 256 256 256 257 258 259 259 259 258 256 253 254 254 253 253 253 253
348 346 341 339 337 336 337 338 338 339 339 340 339 338 339 340 341 341 341 341 341 339 336 336 337 337 337 337 336 334 334 333 332 331 329 328 327 327 326 326 325 324 323 322 321 319 318 318 316 312 308 303 301 301 298 290 283 279 276 274 273 270 265 260 258 257 256 256 256 256 257 258 259 260 260 260 257 251 245 246 249 252 255 255 254
347 343 339 338 337 336 338 339 339 339 339 340 339 338 339 340 340 340 340 340 340 338 338 337 338 338 337 336 335 334 333 333 332 331 329 329 328 327 327 327 327 326 325 324 323 320 319 319 317 314 310 306 306 310 306 295 287 283 277 272 270 267 261 257 256 255 255 255 255 256 258 258 260 261 261 261 258 252 248 245 245 247 253 257 259
345 339 337 337 335 336 337 338 339 339 339 340 340 339 339 339 340 339 339 339 339 339 339 338 338 339 338 336 336 335 333 333 333 331 330 329 329 329 329 328 328 327 326 325 324 322 321 321 320 318 313 307 305 308 304 296 290 285 276 268 266 266 259 253 253 253 253 253 252 253 256 257 260 262 263 263 261 258 255 251 247 244 243 246 253
342 337 335 334 333 335 338 339 340 339 339 340 341 339 339 339 339 338 338 339 339 340 340 339 339 339 338 337 336 335 334 333 333 332 330 330 330 330 330 330 329 328 328 327 325 324 323 323 323 322 319 315 313 309 303 297 293 287 274 262 262 266 261 254 253 253 252 252 252 253 255 258 260 261 262 264 263 260 258 255 252 247 238 234 239
339 334 332 332 334 336 340 341 340 340 340 341 342 341 339 340 340 339 339 340 341 341 341 340 339 339 339 338 337 335 335 334 333 332 331 331 332 332 332 332 330 329 329 328 327 327 325 324 326 327 323 318 315 310 304 299 294 286 272 260 262 266 264 257 254 253 253 254 255 256 258 261 262 261 261 264 266 265 263 257 254 249 238 230 229
337 331 329 331 335 338 341 341 340 341 342 342 342 341 340 340 341 340 341 342 342 342 342 340 340 340 340 339 338 336 335 335 334 333 333 334 335 336 337 335 332 329 329 327 326 327 327 326 327 326 322 316 312 308 306 303 296 287 277 271 272 271 264 258 254 252 253 255 255 258 260 262 263 261 258 260 266 269 268 262 256 251 241 231 225
334 329 328 332 336 340 342 342 342 343 343 342 342 342 341 341 341 342 342 343 344 343 342 341 341 341 341 340 339 337 336 335 334 334 335 337 338 339 340 338 334 330 329 327 326 327 329 328 324 320 317 315 311 309 308 305 299 292 287 285 284 279 269 261 257 253 254 256 256 259 262 262 261 259 256 258 261 259 259 261 260 257 249 237 227
335 330 330 334 338 342 343 343 343 344 344 343 342 342 342 341 342 343 343 345 345 344 342 341 341 341 341 340 339 338 336 335 334 335 337 339 341 341 340 339 336 332 330 329 328 328 327 324 321 319 318 315 310 307 307 305 300 294 292 290 287 283 276 268 263 259 259 259 258 259 261 261 259 257 256 258 258 253 250 252 254 256 257 247 233
336 333 333 336 339 342 343 344 345 345 344 344 343 343 343 342 343 344 345 346 346 344 343 342 341 341 340 340 339 338 337 336 335 337 340 341 342 341 339 338 336 334 332 330 328 326 324 323 324 324 321 316 310 305 302 302 299 296 294 292 287 283 282 276 268 264 263 261 260 259 259 259 260 260 261 261 258 251 248 248 247 249 253 251 241
337 335 335 337 340 342 344 345 346 345 345 344 343 344 343 343 344 345 346 347 346 344 343 342 341 340 340 339 339 338 338 337 338 340 342 344 343 341 338 338 337 335 333 330 328 327 327 328 329 327 324 321 315 306 300 296 294 292 292 293 287 281 282 280 273 269 267 264 262 261 260 260 260 260 261 263 258 248 245 247 245 243 244 245 247
337 337 337 338 341 343 344 344 344 344 344 345 344 343 343 343 345 346 347 347 345 344 343 343 342 341 340 340 340 340 339 339 341 344 345 344 344 341 339 338 337 336 334 332 332 334 333 331 331 330 328 326 320 311 302 296 290 284 282 285 283 273 268 270 269 267 265 264 264 264 264 264 263 259 255 253 252 246 244 247 246 243 241 243 251
338 339 339 339 341 342 344 345 345 345 345 345 344 342 343 344 346 347 347 346 345 344 344 343 342 341 341 340 340 341 341 341 345 348 346 344 343 343 342 340 339 338 338 337 336 336 335 333 334 335 333 333 330 319 307 298 289 279 270 270 273 269 264 263 263 262 261 262 264 267 267 269 270 266 256 250 250 247 243 243 245 242 239 239 246
339 340 340 340 340 342 344 346 347 346 346 346 344 342 343 345 346 346 346 345 345 345 344 345 344 342 342 342 341 341 342 343 347 350 347 344 344 345 344 343 343 342 342 340 338 338 336 334 335 337 338 339 339 330 314 301 293 281 264 255 259 265 266 261 259 261 262 263 266 268 269 271 271 266 257 252 251 246 240 240 239 236 232 231 234
340 340 340 340 341 342 344 346 347 347 347 347 346 343 343 345 346 346 345 345 345 345 345 346 345 344 344 343 342 342 343 345 349 350 348 346 346 346 346 346 347 346 343 340 339 338 337 335 334 336 339 342 343 339 328 314 303 295 280 259 251 254 259 257 254 258 263 266 269 273 276 276 270 261 254 252 249 245 242 241 237 232 229 227 226
340 340 340 341 341 342 343 344 346 347 347 347 347 344 343 344 345 345 345 345 345 345 345 346 346 346 346 344 343 343 344 346 350 350 349 348 347 346 346 348 349 347 343 340 339 339 338 336 335 336 340 344 345 345 344 341 334 332 326 296 265 253 250 249 248 249 254 262 271 279 281 276 265 255 250 247 244 243 242 241 239 232 228 226 226
340 340 340 340 341 343 343 344 346 347 347 347 347 346 344 344 344 344 345 345 345 345 345 347 347 348 348 346 344 344 345 347 349 350 350 350 349 347 347 348 349 346 342 339 339 340 341 341 342 344 346 348 349 351 358 7 3 357 356 346 316 278 252 243 240 239 241 250 267 278 274 264 254 243 237 236 237 238 237 238 238 235 230 229 228
341 340 340 341 342 343 344 344 345 346 347 346 346 347 346 344 344 344 344 344 345 345 346 347 348 349 349 347 346 346 347 347 348 350 351 351 352 351 349 348 348 346 342 339 339 342 345 348 353 356 354 350 351 352 355 0 1 357 353 350 345 326 280 248 230 221 227 241 257 268 273 270 266 264 260 255 253 251 245 236 233 232 230 228 227
341 340 341 342 343 344 344 344 344 345 345 345 346 346 345 344 345 345 344 344 345 346 347 348 349 349 349 348 348 348 349 348 348 350 350 350 353 353 350 348 347 343 339 337 340 345 350 355 0 3 357 349 350 354 352 349 347 345 342 334 336 340 313 245 210 204 217 245 262 273 294 305 296 279 269 260 248 240 233 227 227 230 229 227 228
340 340 342 343 344 344 344 343 343 343 343 343 344 345 344 345 346 346 345 345 344 345 347 348 349 349 349 349 349 350 351 350 349 349 349 349 351 351 348 345 344 343 342 340 341 347 354 358 4 8 6 359 350 348 352 351 344 337 334 332 337 341 323 222 192 190 211 252 267 281 302 303 266 214 191 176 172 176 180 187 199 211 216 218 222
340 340 342 344 344 344 343 342 341 341 342 342 344 344 344 346 347 346 346 346 345 345 347 349 349 349 350 349 349 351 352 352 351 350 348 348 349 352 352 349 347 349 354 350 344 347 356 0 6 11 15 15 5 357 0 4 359 352 349 356 5 6 13 161 173 188 224 246 255 269 280 246 204 180 161 148 151 151 145 148 155 161 172 184 190
340 340 342 344 345 344 343 341 340 340 341 342 344 346 345 346 347 347 347 347 346 346 348 349 349 349 350 350 350 351 353 353 352 351 350 349 348 350 355 359 359 2 6 359 348 349 357 3 8 13 16 20 19 17 22 25 25 32 42 38 33 41 67 117 152 194 242 244 237 224 206 196 188 179 166 156 155 153 150 154 158 159 163 167 170